GOES 2 [-]

Last updated on Nov. 21, 2019, 4:15 a.m. UTC

1 10061U 77048A   19323.82890712 -.00000320  00000-0  00000-0 0  9995
2 10061  11.8231 317.4990 0016850 348.7203 195.5061  0.99401463 22407
UTC
Height (km)
Latitude
Longitude
Inclination
Orbital Period
UTC large
Height (km)
Speed (km/s)
/
Latitude / Longitude
Inclination (degrees)
Orbital Period (minutes)
Azimuth
Elevation
Range (km)
Doppler Factor
iOS Compass Heading
iOS Angle

Next 30 passes for location: Hong Kong

Rise time Rise Azimuth (degrees) Set time Set Azimuth (degrees) Duration Max altitude (degrees)

No matching passes for this satellites